Regional Weather Roundup
Issued by NWS Sioux Falls, SD

Home | Current Version | Previous Version | Text Only | Print | Product List | Glossary On
Versions: 1 2 3 4 5 6 7 8 9 10 11 12 13 14 15 16 17 18 19 20 21 22 23 24 25 26 27 28 29 30 31 32 33 34 35 36 37 38 39 40 41 42 43 44 45 46 47 48 49 50
000
ASUS43 KFSD 061410
RWRFSD

WEATHER ROUNDUP FOR SE SOUTH DAKOTA/SW MINNESOTA/NW IOWA
NATIONAL WEATHER SERVICE SIOUX FALLS SD
900 AM CDT WED MAY 06 2015

NOTE: "FAIR" INDICATES FEW OR NO CLOUDS BELOW 12,000 FEET WITH NO
SIGNIFICANT WEATHER AND OR OBSTRUCTIONS TO VISIBILITY.


SDZ038>040-050-052>070-061500-
SOUTHEAST SOUTH DAKOTA

CITY           SKY/WX    TMP DP  RH WIND       PRES   REMARKS
BROOKINGS      CLOUDY    63  61  94 SE15      29.90F
CHAMBERLAIN    CLOUDY    60  59  96 SE13G18   29.77F
HURON          CLOUDY    64  59  83 SE17G26   29.81F
MADISON        LGT RAIN  59  59 100 SE16G22   29.88F
MITCHELL       CLOUDY    63  60  90 SE17      29.83F
SIOUX FALLS    LGT RAIN  63  59  87 SE13      29.88F
WINNER         PTSUNNY   64  57  78 SE17      29.74F
YANKTON        CLOUDY    63  59  88 E15       29.81F
$$

MNZ071-072-080-081-089-090-097-098-061500-
SOUTHWEST MINNESOTA

CITY           SKY/WX    TMP DP  RH WIND       PRES   REMARKS
FAIRMONT       CLOUDY    59  55  88 SE16G23   29.99F
JACKSON        FOG       61  59  94 SE20      29.98F VSB 3/4
LUVERNE        CLOUDY    64  61  88 SE16G22   29.91F FOG
MARSHALL       CLOUDY    61  55  82 SE14      29.93F
MONTEVIDEO     LGT RAIN  59  59 100 SE13      29.96F
REDWOOD FALLS  LGT RAIN  59  58  96 E9        29.97F FOG
TRACY          CLOUDY    62  61  96 SE13      29.95F FOG
WORTHINGTON    CLOUDY    63  57  82 SE23G29   29.94F
$$

IAZ001>003-012>014-020>022-031-032-NEZ013-014-SDZ071-061500-
NORTHWEST IOWA

CITY           SKY/WX    TMP DP  RH WIND       PRES   REMARKS
CHEROKEE       PTSUNNY   64  62  91 SE17      29.91F FOG
DENISON        CLOUDY    64  63  94 SE15G21   29.87F
ESTHERVILLE    CLOUDY    60  60 100 SE20      29.98F FOG
LE MARS        CLOUDY    64  61  88 SE14G21   29.88F
ORANGE CITY    CLOUDY    64  59  82 SE16G22   29.89F
SHELDON        CLOUDY    64  64 100 SE22      29.90F
SIOUX CITY     LGT RAIN  64  59  83 E16       29.84F
SPENCER        CLOUDY    64  62  93 SE20G26   29.95F FOG
STORM LAKE     PTSUNNY   64  61  88 SE18      29.94F FOG
$$

ABBREVIATIONS USED IN REMARKS
   TC - TEMPERATURE IN CELSIUS
  WCI - WIND CHILL INDEX
   HX - HEAT INDEX
  VSB - VISIBILITY



USA.gov is the U.S. government's official web portal to all federal, state and local government web resources and services.